Theta_e
296 295 296 296 297 299 303 306 307 307 309 310 311 312 315 318 319 320 320 322 321 319 318 318 318 316 317 317 317 317 316 315 314 315 314 314 311 311 311 311 310 308 306 305 304 302 302 301 301 299 299 299 300 300 299 298 297 296 294 295 295 293 291 293 294 296 294 290 288 287 288 288 290 290 291 292 293 293 292 294 293 295 294 296 295
293 293 294 295 296 297 299 303 304 305 306 308 310 311 313 316 318 320 321 320 320 320 319 318 319 317 317 317 317 316 315 313 313 314 314 313 310 310 310 310 309 307 304 304 302 302 300 300 300 299 298 298 299 298 297 296 296 295 294 293 293 294 291 292 294 296 291 291 291 290 287 285 288 288 289 291 292 292 293 294 295 295 296 295 293
294 294 294 295 296 297 298 300 304 307 307 308 309 310 311 314 317 319 320 320 320 320 320 318 319 318 318 318 317 315 316 316 316 314 313 312 310 309 309 309 308 306 305 303 304 303 301 301 300 299 298 297 296 296 296 296 296 295 294 295 291 290 290 292 294 295 288 287 285 285 283 290 287 286 287 288 289 291 291 293 293 294 295 294 292
295 293 293 294 295 296 297 299 302 306 306 307 308 309 311 312 316 318 319 320 319 318 315 320 319 318 319 319 318 316 314 314 315 313 313 312 309 309 308 308 308 307 306 305 305 304 302 302 301 300 299 297 297 295 295 296 295 294 293 293 293 292 289 290 291 290 289 287 287 283 280 282 281 281 284 286 288 288 289 291 291 292 291 289 288
297 294 293 293 294 295 297 299 301 304 306 307 308 309 310 311 314 317 318 319 319 316 317 318 316 316 316 316 315 313 312 312 311 310 311 310 310 308 308 308 308 307 307 306 305 304 303 302 301 300 299 298 298 296 296 296 296 295 294 293 293 294 290 289 291 289 289 289 286 283 283 283 281 282 284 286 286 287 286 287 289 290 290 289 289
297 297 294 294 295 296 296 298 300 303 306 307 309 310 311 311 313 316 318 318 318 318 317 317 315 315 314 312 309 309 306 307 305 306 308 308 309 309 309 309 308 308 307 306 305 303 303 302 301 300 299 298 299 298 297 296 296 294 294 294 294 294 294 291 289 290 289 289 288 285 285 285 284 285 284 284 285 286 286 286 285 286 286 287 287
296 295 295 293 294 295 296 297 299 301 304 308 309 310 311 311 312 315 317 317 318 317 317 315 316 316 314 314 312 311 309 309 310 310 310 310 310 309 309 309 309 308 307 307 306 304 304 303 302 301 300 300 298 298 297 297 296 295 294 293 294 294 292 290 290 290 289 291 291 289 288 287 286 284 284 284 284 285 285 286 287 285 285 285 286
298 296 294 294 295 295 296 297 299 301 303 306 308 309 310 310 311 313 315 314 317 316 316 315 315 316 315 314 312 312 311 310 310 310 311 309 309 308 308 308 308 308 308 307 306 305 304 304 303 303 302 301 299 300 298 297 296 296 294 293 292 293 292 291 290 290 290 289 290 288 287 287 286 285 282 284 283 284 286 284 287 286 287 286 285
297 296 294 293 294 295 297 297 299 301 302 304 306 308 310 310 310 312 314 314 315 315 315 315 314 315 315 315 312 312 312 311 310 309 309 308 309 308 307 307 307 308 308 307 307 306 304 304 304 303 303 301 300 301 299 298 296 296 295 293 292 292 292 291 291 290 290 289 289 286 286 285 285 284 282 282 281 281 282 282 286 286 287 288 286
296 295 295 294 295 296 297 298 299 300 302 303 305 307 308 309 309 310 311 313 314 313 314 315 315 313 314 314 313 311 311 310 310 309 309 307 308 306 306 306 306 306 307 307 306 306 305 305 305 304 303 302 300 301 300 298 298 297 297 296 295 294 292 291 291 291 291 290 291 290 287 285 286 286 284 280 280 280 282 282 282 285 286 285 285
297 296 295 294 295 296 297 297 298 299 301 302 303 304 306 308 309 309 311 312 312 312 313 313 314 314 314 314 313 312 311 309 308 308 308 306 306 305 305 305 306 306 306 306 306 306 306 305 305 305 304 301 301 302 300 299 299 298 298 298 297 295 293 292 292 291 290 289 290 290 290 289 288 285 283 280 279 279 280 281 281 281 283 285 286
297 296 295 293 292 294 295 296 297 299 300 301 302 303 304 307 308 308 309 310 311 311 311 311 312 313 313 313 313 313 311 309 308 307 307 305 306 305 305 305 304 305 305 305 305 306 305 305 304 304 303 302 302 303 302 301 300 299 299 298 297 296 295 293 292 291 290 289 289 288 289 289 287 285 285 285 284 281 283 281 281 281 283 282 283
297 297 295 292 293 294 295 296 297 298 300 301 302 303 304 305 307 307 308 309 310 310 310 310 310 311 312 312 313 312 312 310 309 308 307 306 306 305 304 304 304 303 303 304 304 305 304 305 305 304 303 302 302 303 302 302 301 300 299 298 298 296 294 292 291 291 290 289 288 287 287 287 287 285 286 285 284 283 284 281 281 281 284 282 280
297 296 294 293 293 295 296 297 297 298 300 301 302 302 303 305 306 307 307 308 309 309 309 309 310 310 311 312 312 311 311 310 309 308 307 307 307 306 305 304 303 304 303 303 305 305 304 305 305 305 304 303 302 302 302 302 301 300 299 297 296 294 293 292 292 291 290 289 289 287 286 286 285 285 285 285 283 284 283 285 281 280 280 280 279
298 297 296 295 295 295 297 297 297 298 300 301 302 302 303 304 305 306 306 307 308 308 309 309 309 310 310 311 311 311 311 310 309 309 308 307 307 306 306 306 304 304 304 305 304 305 305 305 305 305 304 302 301 301 301 301 300 299 298 297 295 293 292 292 291 289 290 288 287 288 287 286 286 286 285 285 286 286 286 285 284 283 280 279 279
298 297 297 297 296 296 297 298 298 298 299 300 301 302 303 304 305 306 306 306 307 306 308 309 309 310 310 309 310 310 308 309 308 307 308 308 307 307 306 306 306 305 305 305 305 305 304 304 304 304 304 302 301 301 300 300 299 298 296 296 294 293 292 291 291 290 290 289 288 288 288 287 286 286 285 285 285 285 284 284 287 285 284 280 278
296 296 296 296 297 296 297 298 298 298 299 300 301 302 303 304 304 305 306 306 306 306 307 308 309 309 309 309 309 309 309 308 308 307 307 308 307 307 306 306 306 305 305 304 304 304 305 305 304 304 304 302 301 300 299 299 298 297 296 295 294 292 291 291 290 290 290 289 289 288 288 287 285 284 284 284 284 284 284 285 287 286 284 282 275
294 296 296 296 296 296 298 298 299 300 300 301 301 303 304 304 304 304 305 305 306 306 306 307 307 308 308 308 308 308 308 308 308 307 307 306 306 306 306 305 304 304 304 303 304 304 304 301 303 303 303 302 301 300 298 298 297 296 296 295 295 291 291 290 289 290 289 289 288 288 287 287 285 285 284 284 284 284 284 284 284 284 284 283 278
293 293 294 295 296 297 297 298 299 299 300 301 302 303 303 304 304 305 305 306 306 306 306 306 307 307 308 307 307 307 307 307 307 306 306 305 305 305 304 304 304 302 301 302 303 303 303 302 303 302 302 301 300 298 297 296 296 295 294 295 293 292 291 289 289 289 289 289 288 287 285 286 285 285 284 283 283 284 283 283 282 283 284 283 281
292 292 293 294 296 297 297 297 297 298 300 301 301 302 302 303 303 304 305 305 306 305 305 305 306 306 306 307 307 307 306 306 305 305 305 305 304 303 302 301 302 300 301 301 302 302 302 301 301 301 299 298 298 297 295 294 294 295 294 294 291 291 290 289 288 288 288 288 287 287 285 286 284 284 283 283 282 282 283 282 283 283 282 282 283
292 292 292 293 295 296 294 293 293 295 297 299 301 301 302 303 302 303 303 304 304 305 305 305 305 305 304 305 305 306 305 305 304 304 304 304 304 302 302 302 299 298 299 298 299 300 299 300 299 298 297 296 295 295 294 293 293 293 292 292 289 289 289 288 288 286 286 287 287 287 285 284 284 285 283 283 282 282 282 283 282 282 282 282 284
292 293 292 293 294 295 294 292 292 293 295 296 300 301 301 302 303 303 303 304 304 304 305 305 304 305 304 304 304 305 304 304 303 303 303 303 302 301 300 298 297 297 296 297 297 297 296 296 296 295 295 294 294 293 292 292 292 291 290 290 288 288 288 288 287 287 286 287 287 287 285 284 284 285 283 283 283 282 282 281 282 283 282 283 283
293 293 293 294 295 294 294 293 294 294 296 297 298 300 301 302 303 303 303 304 305 305 305 305 305 304 304 303 303 302 303 302 301 301 302 302 301 299 298 297 296 295 294 295 296 295 294 293 294 294 293 293 293 293 292 291 292 291 290 289 288 288 288 287 287 287 286 286 286 287 285 284 284 284 283 283 282 282 282 282 281 282 282 282 282
293 293 293 295 294 293 292 292 294 294 296 297 299 301 301 302 303 303 303 304 304 305 305 305 305 304 304 303 302 301 300 300 300 300 300 300 299 297 295 296 295 294 293 293 293 293 292 292 292 292 292 293 292 292 291 291 291 290 289 288 287 288 288 288 288 287 286 286 287 286 285 284 284 284 283 282 282 282 282 282 281 280 282 281 281
293 294 294 294 294 294 295 293 293 294 295 297 298 299 300 301 302 303 304 305 305 305 305 305 305 304 304 303 302 300 299 299 299 299 299 298 297 296 294 294 294 292 292 291 291 292 292 292 292 292 291 291 291 291 290 290 290 289 289 288 287 287 287 287 287 287 287 286 286 287 285 284 285 285 283 283 282 282 282 282 282 281 281 280 279
294 294 294 294 295 295 294 291 291 292 294 295 295 296 299 300 301 303 303 304 305 305 305 305 304 304 303 303 302 300 299 299 299 299 298 297 295 294 293 293 292 291 291 291 290 291 291 291 292 291 291 291 290 290 290 289 289 288 288 288 287 287 287 286 286 286 285 286 286 286 285 285 286 286 284 284 283 283 282 282 281 281 281 280 280
291 291 292 292 293 293 295 294 293 292 293 295 295 296 298 299 300 301 303 303 304 304 304 304 304 303 303 302 302 301 300 299 298 298 297 296 294 293 292 292 291 291 290 290 290 290 290 291 291 290 290 290 289 289 289 289 288 288 288 287 286 286 286 286 285 285 285 285 286 286 285 285 286 286 285 284 283 283 283 282 282 281 281 282 281
291 292 292 292 292 293 293 295 295 294 294 295 296 297 298 299 300 301 301 302 303 303 303 302 302 302 302 302 302 301 300 299 298 297 295 294 293 292 292 291 290 290 290 290 289 290 290 290 290 290 290 289 288 288 288 288 288 287 287 287 287 286 285 285 284 285 285 285 285 285 285 285 286 285 285 284 284 284 283 282 281 281 281 282 281
290 291 291 291 291 292 293 295 296 296 296 294 294 295 296 297 298 300 300 300 301 301 301 301 301 300 301 301 301 299 298 297 295 293 292 291 291 291 290 290 290 290 290 290 289 289 289 289 289 289 288 288 288 288 288 288 287 287 287 287 286 286 285 285 284 284 283 283 283 283 284 284 284 286 287 286 286 286 284 282 279 281 281 281 278
288 289 289 289 290 291 293 294 295 296 296 296 296 296 296 297 298 298 299 300 299 299 300 300 299 300 300 300 299 297 296 294 292 291 291 290 290 290 289 289 289 289 289 289 289 289 289 288 288 288 287 287 288 288 288 290 290 288 287 287 286 286 286 285 284 283 282 282 282 283 283 285 286 286 286 287 288 288 287 286 282 282 281 280 279
288 289 289 289 289 290 292 294 295 295 296 296 297 298 297 296 296 297 298 298 297 297 298 298 298 299 299 298 297 295 293 292 291 290 290 289 289 289 289 288 288 288 288 288 288 288 288 288 288 287 287 287 288 288 290 292 292 292 288 287 287 286 285 285 285 284 283 282 282 282 282 284 285 285 285 288 289 289 288 288 286 286 285 283 280
288 288 288 287 289 290 292 293 294 295 295 295 296 297 297 296 296 296 297 296 295 296 297 297 298 297 296 295 294 292 291 291 290 289 289 289 289 288 288 288 288 288 287 287 287 288 288 288 288 287 287 288 288 289 292 292 293 293 290 287 287 286 286 285 285 285 284 283 282 282 282 283 283 284 284 286 288 289 289 288 288 289 288 288 286
287 287 287 287 288 290 292 293 294 295 294 295 296 296 296 298 297 297 296 295 295 295 295 296 296 295 294 293 292 291 291 290 290 289 289 288 288 288 288 287 287 288 287 287 287 287 287 287 287 287 287 287 287 290 292 292 292 292 292 289 287 286 286 285 285 285 284 284 283 283 282 283 284 285 285 284 285 286 288 289 288 288 288 289 289
288 287 287 287 288 290 292 293 294 293 293 294 295 296 298 298 298 296 295 294 294 294 294 294 293 293 293 292 291 291 290 290 289 289 288 288 287 288 288 288 288 287 286 286 286 286 287 286 287 287 287 287 286 289 292 292 292 292 292 290 286 286 286 285 285 285 284 284 284 284 283 282 282 283 283 283 283 283 283 284 283 282 281 286 289
287 286 286 287 288 290 292 293 293 292 292 294 297 297 297 297 297 295 293 293 293 293 293 293 292 292 292 291 291 290 290 289 289 288 288 288 288 288 287 287 287 286 286 287 286 286 286 286 286 287 287 286 286 290 291 292 292 292 292 290 285 286 285 285 284 284 284 284 284 284 284 283 283 283 283 283 283 282 281 281 280 278 280 281 284
286 285 286 286 288 289 291 292 292 292 293 295 296 295 294 294 295 294 293 293 293 292 293 293 292 292 291 291 290 290 290 289 288 288 288 287 288 288 287 287 287 286 287 287 286 286 286 285 286 286 286 286 286 290 291 292 292 292 292 286 285 285 284 284 283 283 283 284 284 284 283 283 283 282 285 288 285 282 280 279 279 279 279 280 282
286 286 286 287 289 291 292 292 291 292 293 294 294 293 293 293 293 292 292 292 292 291 292 292 292 292 291 291 290 290 289 288 288 287 287 287 287 287 287 287 286 286 286 286 286 286 286 286 285 285 285 286 285 289 291 292 292 292 290 285 285 284 284 283 283 283 283 283 283 283 283 283 283 283 286 289 288 285 280 280 280 279 279 279 281
286 286 287 288 289 291 292 291 290 291 293 294 293 292 292 292 292 292 291 291 291 291 292 292 292 292 292 291 290 290 289 288 288 288 288 288 288 288 287 287 286 286 285 286 286 286 286 286 285 285 286 285 285 288 291 291 292 292 288 285 285 284 284 283 283 283 283 283 283 285 284 283 283 283 288 290 290 285 280 280 280 279 278 279 280
286 286 286 288 289 291 291 290 290 291 293 292 291 291 291 291 291 292 291 291 291 291 292 291 292 292 291 291 290 290 289 288 288 288 288 288 287 287 287 286 287 287 286 286 286 286 285 285 285 285 286 286 285 287 291 291 291 291 288 286 285 284 283 283 283 282 282 282 282 284 285 284 284 285 289 290 290 286 281 281 281 280 280 279 280
287 287 288 288 289 290 289 289 290 291 292 291 291 290 289 290 291 292 291 291 291 292 292 293 292 292 291 290 290 289 289 289 288 288 288 288 288 287 286 286 286 287 286 285 285 285 284 284 284 284 285 285 285 286 289 291 291 291 289 286 286 285 284 284 283 283 281 281 282 283 285 287 288 288 290 291 291 288 283 281 281 281 280 279 278
286 287 288 288 288 289 288 289 291 292 291 291 290 289 289 290 290 291 291 291 292 293 293 293 292 292 290 290 290 289 289 289 289 288 288 287 287 287 286 285 285 286 285 284 284 284 284 283 284 284 284 285 285 286 288 291 291 291 290 288 286 286 286 285 284 283 283 282 282 283 283 288 289 289 290 291 291 289 286 281 282 282 281 280 279
287 287 287 288 288 288 288 289 291 292 291 290 290 289 289 289 290 290 291 293 293 293 292 291 291 290 290 289 289 289 289 289 288 288 287 287 287 287 286 285 286 285 284 283 283 283 283 283 283 283 283 284 285 287 287 290 291 292 291 289 287 286 287 286 285 284 284 284 283 284 284 287 290 290 290 291 291 290 288 282 282 285 286 286 280
286 286 287 287 287 287 288 289 291 291 290 290 289 288 289 289 289 290 293 293 293 293 291 290 290 289 289 289 289 289 289 289 288 288 287 286 286 286 285 285 285 284 283 283 282 283 283 282 282 283 284 284 285 286 288 288 290 291 291 290 289 288 289 286 285 284 284 285 285 285 286 287 289 289 290 291 291 290 288 284 286 288 288 288 284
286 286 287 287 287 287 288 289 290 290 290 289 289 288 289 289 289 292 292 292 292 292 290 289 289 289 289 289 288 288 288 288 288 287 287 286 285 285 285 285 284 284 283 282 282 283 282 282 281 282 283 284 285 285 287 288 289 291 291 290 290 289 289 287 286 286 286 286 286 286 286 288 289 290 290 291 291 290 286 287 288 289 288 288 281
285 285 286 287 286 286 287 288 290 289 289 289 289 289 288 288 291 292 291 291 291 290 289 289 288 288 288 288 288 288 288 288 288 287 286 286 285 285 284 285 285 284 283 283 282 283 282 282 281 282 282 283 284 285 286 288 288 290 291 291 290 290 289 289 286 286 286 286 287 287 288 289 289 290 290 290 290 289 288 288 288 288 287 281 279
285 285 285 286 286 287 287 288 289 289 289 289 289 289 288 290 292 292 292 291 290 289 289 289 288 288 288 288 287 288 288 287 287 288 287 287 285 285 285 284 284 284 284 284 283 283 282 283 282 282 282 283 284 284 285 286 287 288 289 290 289 289 288 288 287 285 286 287 287 287 288 289 289 288 288 287 285 285 287 287 287 287 282 279 277
282 284 285 285 286 286 287 287 287 288 289 289 289 290 290 291 291 292 291 290 289 289 288 288 288 288 288 287 287 287 287 287 287 287 287 287 286 285 285 284 284 284 284 283 283 282 282 282 282 282 283 283 283 284 284 285 286 287 288 288 288 287 287 287 285 283 285 285 285 286 287 288 287 288 287 285 284 285 285 285 283 282 279 278 277
281 284 285 285 286 286 286 286 287 288 289 289 290 290 291 291 291 291 290 289 288 288 288 288 287 287 287 287 287 286 287 287 287 287 287 286 286 286 285 285 285 285 284 284 283 283 283 282 282 282 282 282 282 283 284 284 285 286 287 287 287 286 286 285 283 282 283 284 284 286 287 285 284 283 282 280 280 279 279 279 279 277 275 274 277
281 283 284 285 285 286 286 286 287 288 289 289 289 290 290 290 290 290 289 288 288 287 287 287 287 287 287 287 287 287 287 287 287 286 287 287 286 286 286 286 287 287 286 285 284 284 284 284 284 283 282 282 282 282 283 286 285 287 286 286 286 285 285 284 284 284 282 282 283 283 281 280 280 279 278 278 277 277 276 276 276 275 274 271 272
281 283 284 285 286 286 286 286 287 288 289 288 289 289 290 290 290 289 288 287 287 287 287 287 287 287 287 287 287 287 287 287 287 286 286 286 286 288 288 287 286 287 288 289 288 286 286 285 285 285 285 283 283 284 287 287 287 288 288 288 287 287 287 285 285 286 283 281 281 280 279 279 279 278 277 276 276 276 275 273 273 276 273 271 271
280 282 283 284 285 286 286 286 287 287 288 288 289 290 290 290 289 288 288 287 287 287 287 287 286 287 287 287 287 287 287 287 287 286 286 286 286 287 288 289 288 287 288 288 289 289 288 288 286 285 286 288 287 287 287 287 287 288 288 288 288 288 287 286 286 283 281 280 279 278 278 278 278 278 277 276 275 274 273 273 272 272 272 271 272
Wind_Speed
16 12 12 14 16 14 12 12 12 12 13 14 15 15 15 16 15 16 11 13 13 11 11 11 13 11 11 13 14 10 9 10 10 9 9 9 10 11 11 9 8 9 8 9 9 9 8 7 8 7 7 8 8 8 8 7 6 6 6 6 8 6 2 3 4 8 8 4 3 3 2 2 2 1 1 1 1 1 1 2 2 2 2 1 1
6 9 10 10 11 11 10 11 11 14 13 15 18 18 16 16 17 16 14 11 13 14 12 11 12 13 12 11 10 11 11 11 10 10 10 9 10 10 11 11 11 10 9 9 10 10 9 9 9 9 8 8 7 7 7 6 7 7 7 5 2 6 3 5 6 7 2 5 5 1 1 2 1 1 1 1 0 0 1 1 1 2 1 0 1
9 12 10 11 14 14 13 13 15 19 19 19 19 18 17 17 16 16 15 15 13 13 12 13 11 11 13 11 12 8 9 11 11 10 10 10 10 10 10 12 12 10 11 10 11 11 11 10 10 9 9 8 8 8 8 8 8 9 9 9 7 2 4 2 6 4 5 4 3 4 1 1 4 2 1 2 1 1 1 1 1 2 2 0 1
13 13 12 12 13 14 13 14 16 15 15 15 15 18 17 16 16 16 16 16 15 13 12 12 11 11 11 12 12 13 10 10 10 9 10 10 10 9 9 10 12 12 12 12 11 11 12 12 10 10 10 9 10 10 10 10 9 8 7 8 9 8 4 2 0 5 6 9 4 3 2 4 1 5 6 3 0 1 2 3 2 1 0 0 1
16 10 10 10 12 16 19 20 15 16 17 18 18 18 15 20 19 19 17 17 15 15 15 11 7 9 9 9 10 9 9 11 11 11 11 10 11 10 11 10 11 12 12 12 11 12 11 10 10 10 10 9 8 9 10 11 11 9 10 9 10 11 7 4 1 3 8 4 8 5 2 0 4 1 3 1 2 0 1 1 0 0 0 0 1
15 15 13 14 17 16 15 13 15 17 18 19 19 20 19 18 19 18 15 15 16 16 17 14 11 11 12 12 13 13 14 14 16 17 14 13 12 12 11 11 11 10 10 11 10 9 10 10 10 11 10 10 10 10 9 8 8 10 10 11 9 7 11 9 4 1 4 5 2 2 2 4 5 2 2 1 2 1 1 1 1 1 2 2 2
10 10 10 10 14 14 15 17 20 20 21 19 18 18 20 19 19 19 17 15 16 16 17 14 15 12 15 17 16 17 18 12 12 13 13 10 10 11 11 10 11 12 11 11 10 11 11 10 10 10 12 11 9 9 9 10 10 9 7 8 9 8 8 10 11 8 3 1 2 2 2 2 4 6 3 2 3 2 3 1 0 1 1 2 3
13 11 11 12 14 17 20 22 21 23 22 18 18 17 19 18 19 19 16 15 16 16 18 15 16 16 15 15 14 14 17 16 15 15 13 12 11 12 10 10 11 11 12 11 11 11 11 11 11 9 10 11 10 10 11 9 7 5 7 7 7 8 9 11 10 9 12 6 3 3 3 3 4 5 3 5 6 6 0 2 1 1 1 2 3
11 10 9 11 14 17 19 19 22 21 16 18 18 18 18 18 19 18 18 17 16 19 19 19 15 16 16 14 13 12 12 12 12 12 13 13 14 11 11 11 11 11 12 12 11 12 11 12 12 11 9 10 10 9 8 9 11 11 9 7 8 6 6 7 10 11 9 9 8 2 3 4 5 5 3 4 4 3 0 1 1 1 1 0 1
8 9 10 10 14 16 19 21 18 17 16 17 17 17 17 16 18 19 19 17 16 19 19 20 19 14 14 16 17 13 11 10 12 14 14 14 15 13 12 11 10 10 10 11 11 11 11 10 11 12 11 10 10 10 9 10 9 10 11 10 10 10 6 8 9 9 8 7 10 9 6 4 4 2 2 3 4 3 5 3 2 2 2 1 3
13 10 9 10 12 14 12 14 17 14 11 12 14 15 15 15 18 20 21 17 17 19 20 21 19 16 15 16 18 16 14 13 12 15 14 14 14 14 13 11 11 11 10 9 11 11 10 11 12 12 10 9 10 10 10 11 10 11 10 10 10 11 9 8 7 8 7 8 7 9 10 11 10 8 8 4 5 2 3 1 0 3 1 0 1
16 14 12 7 7 10 9 14 14 16 13 13 14 14 16 16 17 20 18 18 17 18 19 20 18 18 16 16 17 17 16 13 16 16 15 17 15 14 12 11 11 11 11 10 10 10 9 10 9 9 9 9 11 10 10 10 9 10 10 10 9 9 9 9 9 9 9 8 7 7 8 8 7 6 8 8 9 6 8 5 6 1 0 2 3
18 18 13 8 9 12 13 16 13 12 17 19 19 17 17 18 20 21 20 20 19 18 20 20 19 18 18 17 16 14 16 15 16 15 13 14 13 14 14 13 12 11 11 12 12 13 10 10 10 10 8 8 9 10 9 10 10 10 10 10 10 10 9 9 9 10 11 10 10 7 7 7 8 5 8 8 6 8 8 6 1 1 2 0 2
19 16 14 12 11 12 15 16 17 18 20 20 19 18 18 19 22 24 23 21 19 19 20 20 20 19 18 17 16 14 14 15 14 14 14 13 13 14 14 14 13 14 13 13 13 13 11 11 12 11 11 10 9 9 10 10 10 9 10 10 10 9 8 9 9 8 8 8 8 8 7 8 7 7 8 9 9 8 6 10 5 3 3 1 1
18 17 18 17 14 15 15 14 15 17 19 19 17 18 18 19 21 23 21 20 20 20 18 20 19 19 18 17 15 13 14 13 13 13 14 14 13 15 14 14 14 13 15 14 13 14 14 11 10 11 11 11 11 11 9 9 10 9 9 10 9 9 9 9 8 8 9 8 7 8 8 6 8 7 8 8 9 9 9 9 10 9 2 4 2
21 19 21 21 18 15 14 12 12 12 15 15 17 17 17 19 20 23 23 22 22 20 19 20 19 17 18 19 19 16 12 11 11 11 12 14 14 14 14 14 14 14 13 13 14 14 13 12 11 11 11 10 11 12 11 9 9 9 8 9 10 7 9 10 9 8 9 9 8 6 7 7 6 7 7 7 7 7 8 8 9 9 12 3 1
21 19 18 22 19 12 13 12 10 10 9 13 17 18 21 18 17 20 18 17 20 20 20 18 17 17 19 19 17 16 16 16 15 15 15 13 13 13 13 13 12 12 13 13 14 13 13 13 13 12 12 11 11 11 11 10 10 9 9 9 10 8 9 11 8 10 8 8 7 8 8 7 6 4 4 6 6 5 7 8 7 9 7 12 5
24 20 17 18 16 12 12 11 12 17 20 20 19 18 18 19 21 21 20 21 19 19 18 17 18 18 17 19 19 18 17 17 15 15 13 13 12 12 11 12 13 12 12 12 14 15 14 14 13 13 12 12 12 11 10 10 10 9 10 10 9 9 9 8 8 9 8 8 7 7 5 6 5 6 6 5 6 6 7 7 7 5 6 9 6
28 24 20 19 18 15 12 15 17 16 14 13 13 14 13 14 17 21 24 24 23 20 19 16 17 15 16 18 20 19 16 14 14 14 13 14 15 14 14 14 12 12 12 12 13 14 14 14 14 13 12 13 11 11 10 10 10 10 9 9 7 9 10 9 8 9 8 9 8 8 5 6 6 6 5 4 4 5 5 6 5 5 4 6 6
27 27 21 20 18 13 13 13 11 12 12 11 12 12 13 14 13 15 16 16 17 16 16 17 18 16 15 15 15 15 15 15 14 15 15 16 15 15 14 13 15 12 13 14 14 15 14 15 13 14 13 12 12 10 10 10 10 10 9 9 8 9 9 10 8 7 8 8 9 8 7 7 6 5 5 5 5 4 6 6 6 5 4 4 5
26 26 24 22 16 12 8 6 3 2 5 7 9 12 15 15 14 15 17 18 17 17 17 17 15 15 16 18 18 17 18 16 15 15 15 15 14 14 14 14 11 13 13 13 14 15 15 15 14 13 14 13 12 11 10 10 10 9 9 9 8 9 10 8 8 8 6 9 9 9 8 6 7 7 6 5 5 5 5 6 6 6 6 4 6
26 26 24 20 14 10 8 5 4 4 5 8 10 10 11 14 14 14 14 15 18 18 17 17 15 15 18 18 18 16 16 15 16 16 16 15 14 14 14 12 14 13 13 14 14 12 12 13 13 13 13 12 12 12 10 10 11 10 10 7 9 9 9 8 8 9 8 8 9 10 8 7 7 8 6 6 7 7 7 7 6 8 7 7 5
25 25 23 20 17 11 9 8 7 9 10 10 9 11 13 13 13 13 16 17 17 18 17 17 17 17 18 17 17 16 16 17 17 16 17 16 15 14 13 15 13 12 12 14 14 13 13 12 12 12 12 12 13 12 11 11 11 11 11 8 8 10 10 10 10 10 10 8 9 10 9 8 7 8 7 7 7 7 6 8 7 6 7 7 5
25 23 21 20 16 9 7 7 9 8 10 14 14 12 11 11 12 13 16 17 15 15 15 16 15 16 17 16 16 16 17 17 18 16 18 17 15 14 13 15 14 12 14 12 13 14 12 13 13 12 12 13 13 12 12 12 13 12 11 11 9 9 9 9 10 9 10 10 11 10 10 10 9 10 8 8 7 7 8 7 7 5 7 7 5
26 26 25 24 21 18 14 8 9 9 7 7 7 7 8 11 11 13 14 14 15 14 15 16 17 17 17 17 17 16 17 19 19 17 18 17 15 15 14 15 14 14 14 12 12 13 14 13 14 14 14 14 14 13 13 12 11 11 11 11 10 9 9 9 9 9 9 10 10 11 10 10 11 11 9 9 8 8 7 8 7 6 6 5 3
24 27 27 29 25 21 15 9 5 4 6 4 4 4 5 8 11 11 12 13 14 13 15 16 16 17 17 19 18 17 18 19 19 18 18 17 16 15 15 13 15 15 14 13 14 12 14 15 13 13 13 13 12 12 13 13 12 11 11 11 10 9 9 8 8 8 8 8 9 10 11 11 12 13 12 10 9 10 8 8 7 6 6 5 5
23 21 21 23 26 29 25 18 11 5 7 8 8 7 8 10 12 13 13 13 13 13 14 16 17 18 17 18 19 19 18 18 18 17 15 14 15 15 15 15 14 16 15 14 13 14 12 13 13 12 13 13 13 12 12 12 12 11 12 11 11 10 9 8 8 8 8 8 9 9 11 11 12 12 12 12 11 9 9 9 9 9 8 8 7
21 22 24 24 24 23 23 23 20 13 9 8 9 11 14 15 17 15 14 14 13 14 14 15 16 16 17 19 18 17 16 17 14 13 13 14 14 14 15 13 13 15 16 15 15 15 13 12 13 12 12 11 12 11 11 11 11 12 12 12 12 12 11 9 8 8 8 8 9 9 10 10 10 10 11 10 11 11 9 8 8 9 9 10 9
21 21 22 24 24 22 23 20 18 20 16 13 10 9 9 9 9 10 11 13 13 14 16 16 16 17 18 17 15 14 14 13 12 11 11 12 13 13 12 12 13 13 12 13 13 12 13 12 11 12 11 10 12 12 11 12 12 12 11 13 13 13 12 11 10 9 8 8 7 7 8 8 8 11 13 12 12 11 12 11 9 10 10 10 8
20 19 19 21 22 22 22 20 18 18 19 19 15 12 11 11 12 12 12 14 11 14 16 16 17 18 16 15 15 13 13 13 12 13 13 13 13 12 12 12 12 12 12 12 12 12 13 13 13 12 11 11 11 10 13 19 16 14 13 11 11 12 13 12 12 11 9 8 8 7 7 12 12 13 14 14 14 12 12 11 13 12 11 10 9
19 19 20 21 21 21 21 21 19 19 19 19 19 15 13 11 10 11 13 11 9 12 13 15 17 16 14 14 13 14 13 14 14 13 12 13 13 12 12 13 12 12 13 12 13 14 13 13 14 13 13 12 10 10 18 16 13 15 14 13 14 12 11 12 13 13 13 12 9 8 7 10 11 11 11 14 14 12 12 9 10 10 10 13 11
21 19 19 21 22 21 21 21 20 19 20 19 19 18 16 14 12 14 14 11 11 12 14 15 15 12 13 14 14 13 14 15 13 14 14 13 13 13 14 14 14 14 12 12 13 14 13 12 12 12 12 12 11 14 14 13 13 14 15 12 11 12 12 12 13 13 11 11 11 10 9 8 9 9 9 10 12 14 13 13 12 11 10 10 11
20 20 20 21 20 19 19 20 17 17 19 21 20 18 18 17 16 15 13 11 14 15 15 15 12 11 13 13 12 14 15 15 16 15 14 13 14 14 14 14 16 14 13 15 14 13 13 13 13 14 13 12 10 15 14 21 20 16 13 14 10 11 12 12 12 13 13 13 11 11 10 9 8 13 10 8 9 9 11 13 13 12 11 11 10
20 18 19 19 18 18 17 16 15 17 18 18 17 17 18 18 18 16 14 15 15 15 14 16 13 13 12 13 14 15 15 16 15 15 14 15 15 16 15 13 12 11 13 13 13 15 13 14 14 15 14 12 11 15 19 21 20 16 13 12 10 12 11 11 12 13 12 13 13 13 12 10 9 10 9 9 9 8 8 7 6 5 5 8 11
20 21 20 19 19 19 18 16 16 18 19 17 17 18 22 22 17 15 13 14 15 16 16 15 15 14 12 12 14 15 15 14 15 15 15 16 17 14 14 12 12 14 15 16 16 16 15 14 13 12 12 12 11 17 20 21 21 17 15 11 9 9 9 9 9 9 11 12 12 12 12 13 12 11 10 11 10 9 8 7 7 5 6 6 6
20 21 21 20 19 18 17 16 15 17 18 15 15 17 20 24 18 15 15 17 17 17 18 17 16 16 16 16 16 16 16 15 15 15 16 17 17 17 16 13 12 11 9 8 7 9 12 13 13 14 13 13 11 18 21 21 21 17 17 11 9 10 10 10 10 10 9 10 10 12 12 12 12 11 12 16 12 10 9 11 9 6 6 5 6
20 19 21 19 17 17 16 14 14 16 17 14 14 16 19 22 18 12 12 14 14 16 17 18 20 19 18 17 16 17 17 16 16 17 17 18 17 16 14 12 14 13 13 13 14 14 13 14 15 14 14 13 12 18 21 22 21 19 15 10 10 9 9 10 11 10 11 11 12 13 12 13 13 12 15 19 17 14 11 13 10 9 8 7 8
18 20 19 19 18 16 15 13 16 16 14 12 13 16 18 20 18 11 11 14 16 19 19 18 19 19 19 18 16 17 18 18 17 19 19 17 16 14 16 16 18 16 15 14 13 12 12 13 15 16 16 15 13 18 23 23 22 23 16 14 12 11 11 11 9 9 9 10 12 17 14 13 13 12 17 19 20 16 13 14 12 12 11 10 8
19 20 22 22 20 19 17 14 13 16 13 10 13 16 16 18 17 11 11 13 16 19 18 20 20 17 15 15 16 17 18 20 21 20 18 18 18 17 14 13 13 14 16 14 13 13 12 11 13 15 17 17 14 18 24 24 24 24 17 12 11 10 11 10 10 10 8 8 9 12 17 12 12 13 19 19 19 15 13 14 14 13 13 12 11
22 20 21 22 21 20 18 15 15 14 10 9 12 14 15 16 16 12 11 15 17 17 18 18 16 15 14 12 13 18 19 20 21 18 16 16 14 12 13 14 13 12 12 12 12 12 15 13 12 13 13 13 14 15 20 25 25 25 21 13 11 12 12 12 10 10 10 8 9 9 11 15 17 17 19 20 20 19 15 12 12 12 12 13 9
23 24 23 22 22 20 18 16 14 11 7 7 10 12 15 15 15 14 12 14 14 14 14 14 14 14 14 16 16 17 20 20 19 20 18 14 13 14 14 14 14 11 11 11 13 12 13 12 11 11 11 11 12 15 18 24 24 25 23 15 13 14 12 12 12 11 10 11 11 10 9 14 19 19 19 20 18 19 14 13 13 13 11 7 9
20 23 24 23 23 21 19 18 16 13 8 9 11 13 15 15 14 15 14 13 13 12 9 9 10 12 14 16 17 16 17 17 17 16 17 18 16 15 15 16 13 13 15 14 14 13 13 11 10 10 10 11 10 16 15 22 24 25 20 18 14 13 12 12 11 11 10 9 10 9 9 13 18 19 20 22 19 18 17 11 11 10 10 12 10
23 23 21 21 23 23 21 20 16 12 9 9 11 15 16 15 15 16 13 12 13 12 10 9 11 12 13 15 16 18 15 12 14 18 21 18 16 15 14 14 15 14 15 15 14 13 12 12 10 9 8 9 9 11 17 17 22 23 23 14 11 11 10 10 12 13 12 10 8 9 9 16 21 22 22 22 19 19 15 11 13 14 15 15 11
20 19 22 20 24 23 21 18 16 11 10 10 11 14 16 17 19 16 12 12 12 13 11 11 13 13 14 14 15 16 16 15 19 18 17 18 17 17 16 15 15 15 14 15 12 12 12 12 13 11 9 9 8 9 13 18 18 23 16 20 14 12 13 12 10 10 10 10 10 10 11 18 20 21 22 21 20 19 12 14 16 16 16 14 8
22 20 20 20 21 22 20 19 15 12 12 11 9 12 17 19 18 14 13 12 12 13 12 13 13 13 14 13 14 14 16 16 17 19 19 17 18 17 16 14 15 14 15 16 14 13 14 14 13 14 12 10 10 9 9 14 19 20 21 19 15 14 13 10 9 7 6 8 8 8 13 20 21 21 22 21 17 17 15 17 17 17 14 8 8
21 22 18 19 18 19 20 19 16 14 14 10 10 10 15 19 16 14 13 12 12 13 14 16 15 15 16 16 16 15 16 14 14 15 20 20 20 19 18 16 15 15 15 16 15 15 14 14 14 13 13 12 11 10 10 10 12 16 16 22 22 20 18 17 12 8 10 10 10 12 17 19 19 17 14 11 10 11 15 16 16 15 8 8 7
24 22 19 18 15 18 18 16 17 15 12 11 12 12 13 14 16 15 14 12 12 14 15 15 16 15 15 17 19 16 15 15 15 12 12 16 17 18 17 17 17 17 16 16 15 16 15 14 14 13 12 11 11 11 10 11 11 12 11 14 16 15 16 15 9 6 8 8 11 13 13 15 13 18 14 9 7 11 11 11 9 8 7 7 7
23 17 19 17 18 18 16 16 17 15 12 13 13 14 14 14 15 15 13 10 11 12 14 13 15 14 14 16 17 20 20 16 17 16 13 13 16 18 18 19 20 19 18 16 16 16 17 16 15 13 12 12 13 13 13 14 14 13 12 12 11 10 10 9 8 6 7 8 9 10 12 9 9 8 7 6 7 7 7 7 7 6 6 5 7
19 18 17 16 16 14 14 16 16 13 13 13 15 16 15 14 15 13 10 10 11 12 13 13 13 13 14 15 16 17 18 17 16 16 16 16 19 18 18 18 19 18 19 20 18 17 17 16 16 17 17 16 15 16 17 12 15 16 16 14 12 12 10 9 9 11 8 7 8 9 9 10 10 10 9 9 8 8 7 7 6 6 6 6 5
19 17 16 14 13 14 16 15 13 12 13 14 16 17 15 12 11 10 9 10 10 10 11 11 11 12 12 13 13 14 15 15 16 16 14 10 10 14 17 16 15 19 27 29 26 21 21 18 16 17 19 21 21 20 18 20 18 15 12 13 13 14 11 10 13 19 12 11 11 12 11 12 11 10 10 10 10 9 9 8 8 7 7 7 7
19 17 16 15 15 13 12 13 13 12 13 14 15 16 14 11 9 8 9 10 10 9 9 10 11 11 12 13 12 12 13 14 14 14 13 13 11 8 9 10 13 22 25 26 29 32 30 26 22 16 14 17 14 16 23 22 20 19 17 16 15 16 17 18 20 14 10 11 11 11 11 10 11 11 11 12 10 10 10 9 9 8 7 7 8
Wind_Direction
241 227 217 210 205 202 195 186 188 189 189 186 189 193 195 192 188 193 189 182 186 185 184 180 174 175 180 183 179 177 172 169 173 177 178 178 170 169 166 165 161 155 153 149 148 147 151 153 153 159 155 154 157 164 160 159 156 150 142 134 136 126 82 115 134 127 120 70 48 39 11 352 78 76 57 45 47 51 71 102 112 96 90 93 94
254 230 216 208 202 198 189 186 178 181 195 191 192 193 193 193 193 193 188 188 190 190 186 186 180 177 177 181 175 173 169 171 176 178 182 178 175 173 168 164 163 162 161 154 153 154 155 162 166 165 162 162 159 150 153 146 146 147 146 119 104 138 136 158 160 121 114 155 136 115 357 341 341 6 314 282 193 59 86 102 92 127 149 140 42
243 237 217 208 202 194 188 191 191 191 189 192 195 189 191 193 195 191 190 192 194 194 189 192 185 175 174 174 170 170 176 172 174 180 177 177 180 178 174 165 162 165 165 162 161 164 164 165 171 163 165 156 149 156 157 157 163 161 164 153 136 82 93 156 166 145 127 109 102 91 214 182 309 336 280 248 230 186 123 165 179 181 213 95 85
251 233 221 208 200 197 194 193 193 191 189 191 191 192 193 193 194 191 190 191 195 196 197 198 188 177 173 165 167 165 171 169 165 170 177 175 179 180 178 171 167 167 170 170 169 170 169 171 166 168 169 168 163 161 166 167 166 166 160 157 147 137 141 182 166 146 130 134 148 174 196 141 212 253 211 275 296 250 206 222 177 223 325 22 58
263 246 224 206 201 201 199 199 187 190 191 189 189 191 191 193 192 192 190 189 191 195 196 192 176 168 163 156 156 152 147 162 164 175 178 181 179 180 184 179 174 170 174 174 171 171 172 167 168 169 167 170 163 164 170 175 175 169 162 156 168 158 153 136 174 162 154 162 134 119 84 141 217 227 120 279 30 50 344 316 302 184 219 196 209
253 249 227 209 207 209 206 197 193 197 195 195 191 191 188 191 190 191 190 188 187 186 191 192 191 177 168 163 167 168 172 170 179 176 178 182 183 181 181 179 176 174 175 172 171 168 172 173 171 167 168 170 173 173 172 164 167 170 178 166 164 175 153 142 140 276 167 145 134 138 170 173 172 210 106 166 33 56 343 33 184 216 188 212 235
258 242 236 211 213 208 205 199 200 199 202 193 191 191 189 186 186 187 187 187 186 181 181 186 194 192 185 182 180 179 177 185 172 170 173 177 175 181 179 183 180 175 178 177 174 175 174 173 175 179 169 174 171 167 171 179 175 176 164 165 171 153 145 153 162 164 91 71 92 96 96 71 125 126 184 120 79 338 8 325 349 2 237 193 228
262 252 234 219 212 204 206 206 202 204 199 188 191 189 188 185 183 185 186 185 184 180 181 185 190 195 194 190 185 187 184 179 175 174 170 165 175 179 179 181 181 182 179 181 176 175 175 175 177 183 181 168 168 176 178 175 162 154 172 170 154 165 164 157 162 164 166 174 129 110 71 57 55 79 113 152 149 143 269 336 155 18 58 206 226
264 261 244 220 218 212 213 210 210 208 195 191 191 188 186 186 185 182 184 184 183 179 182 187 192 194 197 196 192 194 187 174 170 167 168 169 173 179 179 180 181 183 183 180 180 178 178 177 176 180 185 169 170 175 176 169 169 164 166 162 166 172 175 167 159 179 173 161 144 113 105 71 57 65 76 55 120 111 269 231 244 324 30 328 351
283 255 253 232 224 222 215 214 210 206 200 198 192 186 186 182 182 182 186 184 183 181 183 186 192 194 197 200 199 191 180 174 172 171 172 172 174 176 179 179 180 181 184 183 179 182 178 176 180 180 181 173 170 174 169 168 168 172 173 172 170 171 176 169 177 177 183 160 169 154 143 105 64 57 48 72 48 82 164 204 216 130 133 291 345
306 291 267 248 234 232 221 216 212 205 203 195 192 189 185 186 185 185 187 184 182 183 183 185 188 194 202 200 199 193 185 175 178 176 171 171 174 175 178 179 178 181 180 183 182 179 184 180 182 183 177 176 170 164 172 173 171 172 175 172 175 174 173 173 174 183 171 163 169 167 158 156 172 172 181 165 130 128 77 121 341 247 171 27 311
300 293 283 278 266 242 213 215 208 201 192 195 198 192 186 186 185 188 186 186 186 184 184 186 187 194 201 202 200 196 186 182 183 183 178 176 175 174 175 173 179 180 180 180 183 181 181 182 186 181 174 176 175 173 172 175 173 172 174 178 179 180 174 173 172 174 174 168 175 176 175 170 167 149 162 156 149 172 155 163 172 198 68 227 291
308 312 329 301 251 238 219 216 204 193 196 196 193 189 187 184 184 187 191 187 187 185 185 186 187 193 197 201 202 195 191 187 186 184 180 178 174 172 172 178 174 177 184 180 186 181 180 182 178 179 177 185 181 168 174 171 173 177 177 178 179 179 178 175 173 179 172 173 181 184 166 170 183 169 147 157 155 147 146 118 246 70 134 11 311
322 326 315 290 267 250 233 219 202 201 201 195 192 189 189 188 187 187 190 186 184 186 187 187 190 192 194 198 198 193 194 186 186 183 181 181 177 177 178 176 177 181 177 186 181 180 184 186 181 180 179 176 179 176 173 173 174 178 178 178 179 179 173 178 180 172 175 176 161 166 178 181 183 166 154 144 151 149 149 142 148 33 61 19 306
334 333 333 321 293 265 251 231 217 209 202 195 191 194 189 192 188 188 187 185 183 187 186 189 190 191 193 197 197 195 192 188 186 183 179 180 181 179 181 179 177 183 181 181 177 180 182 183 185 180 178 181 178 173 181 176 176 175 180 178 174 173 174 174 179 168 175 173 170 169 171 182 173 173 156 168 162 165 150 156 142 129 47 29 357
335 336 337 335 321 291 273 261 240 224 210 200 198 194 193 195 189 187 187 184 185 184 187 188 189 188 189 192 199 199 193 187 183 180 182 183 179 180 181 183 182 177 183 176 177 178 179 180 180 184 182 182 184 173 173 178 179 177 175 174 177 172 170 176 179 174 179 176 174 165 158 186 176 171 170 157 164 152 144 150 142 144 139 125 348
325 325 330 329 326 297 272 264 252 237 220 211 204 198 197 192 190 189 188 186 187 187 186 186 186 185 190 190 191 197 198 195 189 183 180 180 178 180 179 181 179 178 175 176 174 179 179 179 180 184 184 183 186 175 173 179 179 179 177 177 179 176 172 182 172 179 181 172 172 170 176 165 170 157 147 150 148 141 144 148 155 159 155 131 151
312 309 316 320 319 294 275 263 243 230 216 211 206 203 200 191 188 185 184 187 191 188 186 185 186 187 187 189 192 195 196 197 193 187 181 177 178 177 174 173 180 176 173 175 174 177 180 180 181 182 184 184 186 176 173 180 178 182 182 183 180 169 175 175 176 172 173 168 166 168 160 151 153 154 155 152 149 149 140 145 153 158 140 142 157
316 314 318 320 319 308 270 255 247 245 250 238 219 203 204 207 199 187 185 187 187 188 186 185 186 187 187 187 188 190 193 191 190 185 180 181 180 178 177 178 171 172 170 170 174 178 179 182 181 182 182 185 183 177 174 178 179 180 182 182 175 171 172 177 179 170 169 163 167 169 158 148 151 152 138 137 135 134 139 136 131 131 150 136 145
312 311 317 314 312 304 287 274 271 268 258 238 210 201 207 213 209 203 195 188 186 185 182 185 189 189 185 183 186 189 189 190 187 180 181 184 183 178 177 173 178 171 174 173 177 179 180 180 182 180 181 181 178 178 176 177 178 183 179 181 177 174 174 177 176 174 158 164 158 161 164 153 149 136 134 138 143 135 131 129 131 138 144 144 133
310 310 313 314 310 299 281 259 234 269 294 287 263 229 210 196 205 206 192 186 186 186 184 190 188 191 182 183 185 186 187 185 183 184 184 186 182 179 180 179 164 175 172 175 179 181 180 182 180 179 179 178 174 175 178 174 179 180 182 179 170 177 176 177 164 169 161 157 159 157 162 155 148 141 147 143 137 139 128 129 140 136 148 172 141
305 305 307 309 301 280 269 244 210 184 226 243 239 243 230 215 204 201 203 195 188 185 187 185 189 189 187 184 185 185 183 182 183 184 186 184 182 182 179 167 176 178 171 177 180 179 179 177 178 178 178 175 172 175 175 174 180 177 181 178 172 177 176 172 169 168 165 163 155 155 161 155 159 145 147 150 147 143 144 138 155 149 158 179 177
303 302 303 304 296 281 264 248 231 214 213 221 225 224 228 224 211 204 203 201 192 190 186 186 188 189 188 184 182 184 182 182 184 188 190 186 184 181 173 174 178 172 176 175 176 175 176 176 177 178 175 173 175 177 176 177 181 177 178 179 177 176 176 174 177 174 168 161 155 159 162 155 151 142 154 156 153 156 152 150 164 162 162 181 196
306 303 301 299 296 291 284 267 257 242 222 216 214 213 225 227 223 216 211 204 196 191 189 188 190 192 188 183 182 183 184 186 188 189 191 188 182 179 175 176 174 168 172 176 170 170 170 174 177 178 177 175 177 177 177 181 180 178 176 176 176 180 179 180 180 173 164 165 164 156 162 157 152 149 159 158 167 156 160 158 159 175 157 173 177
326 322 315 309 306 300 294 270 249 249 244 237 222 217 225 229 222 223 222 212 201 193 190 191 189 189 189 189 185 182 186 188 190 190 191 187 181 176 175 174 169 170 172 166 171 168 170 174 179 180 177 178 181 178 177 179 178 176 173 171 174 179 180 180 178 173 169 165 164 165 160 157 157 156 165 165 166 167 165 154 160 162 152 151 141
337 341 342 341 332 316 300 280 247 221 209 210 218 215 231 243 240 233 233 226 213 199 195 189 189 189 192 192 189 187 190 190 189 188 187 183 178 175 173 174 170 170 169 169 168 173 174 178 179 178 176 178 177 179 180 179 176 172 170 169 169 173 177 173 171 167 166 169 165 162 164 164 165 168 175 169 166 168 160 157 154 153 143 138 136
342 343 344 346 346 343 332 315 290 254 207 196 195 202 214 226 234 229 225 226 224 209 198 194 193 193 192 193 192 193 191 192 192 190 184 179 177 174 172 173 173 167 167 169 170 170 175 174 177 174 177 176 177 179 179 178 175 172 170 166 165 166 168 170 172 168 167 168 167 166 168 172 173 173 168 171 168 164 167 167 162 157 154 146 149
340 343 344 342 338 336 336 336 328 305 282 261 225 209 208 212 222 222 217 213 213 215 207 200 194 195 196 195 196 192 192 194 194 188 182 179 174 173 174 168 165 166 169 170 171 171 171 171 174 177 176 171 171 175 177 176 174 172 169 169 167 166 166 168 167 167 166 171 173 172 174 177 174 171 169 170 166 167 162 161 164 154 157 151 154
338 340 338 336 333 329 327 327 330 332 316 283 271 251 244 235 231 224 222 225 219 214 209 201 198 199 199 195 191 190 190 188 186 180 175 175 175 173 170 165 167 168 167 167 165 164 162 168 169 170 168 170 174 179 179 175 172 173 171 169 169 167 166 166 166 167 167 164 168 171 174 176 175 172 172 170 174 166 162 165 176 162 160 152 145
330 332 330 326 324 324 322 321 327 331 331 320 291 268 251 237 231 224 223 223 210 218 217 207 202 201 197 190 189 186 183 179 177 177 177 175 172 169 164 163 168 166 164 163 162 165 166 167 167 168 168 172 181 181 183 180 176 172 171 170 169 171 168 167 166 166 167 168 169 170 175 175 171 170 171 172 172 170 179 177 166 164 157 149 147
322 324 324 321 320 321 321 322 326 330 329 321 314 294 267 249 233 225 223 218 211 224 224 219 209 200 191 187 184 184 176 177 178 173 172 170 167 165 163 163 163 162 162 165 163 165 170 169 169 169 172 178 182 184 183 180 174 170 172 170 171 172 171 168 170 170 173 171 169 169 168 173 169 170 172 173 176 167 172 160 160 155 156 150 147
317 318 319 320 319 320 322 322 325 327 325 320 314 310 292 263 234 225 221 198 200 214 225 231 222 197 189 185 185 177 177 177 171 175 171 171 168 165 165 165 164 164 164 162 168 172 169 166 167 170 176 181 185 184 177 173 170 164 170 172 171 170 172 175 176 175 171 167 166 165 170 167 173 171 167 172 173 173 169 156 144 137 134 138 147
312 312 315 317 316 316 318 318 319 322 320 314 310 305 296 277 252 232 219 195 204 208 212 225 230 215 198 186 177 178 180 175 177 171 169 166 167 167 167 167 172 171 162 167 171 167 170 170 170 173 180 181 184 181 172 182 180 171 160 166 173 172 174 178 177 175 171 169 165 165 164 170 169 168 167 168 163 165 159 148 140 136 139 141 149
306 306 307 311 313 313 312 309 308 311 309 306 303 302 301 287 260 239 214 205 200 208 207 214 214 218 209 188 182 180 181 180 173 169 166 167 168 174 174 173 166 160 165 166 167 171 171 174 177 178 178 176 176 184 179 181 180 171 160 162 174 173 178 179 178 176 172 170 170 167 164 168 168 167 165 161 158 154 149 137 129 130 145 167 168
304 305 308 310 313 309 306 307 311 314 313 313 313 321 319 307 275 239 210 206 202 202 204 208 210 212 205 199 187 183 183 176 174 171 167 170 173 170 169 168 166 170 172 174 174 176 177 176 176 174 173 175 181 175 178 179 179 171 162 158 169 172 174 178 179 179 176 171 169 169 170 168 166 165 166 160 152 151 143 140 145 160 173 183 186
304 304 306 309 310 307 301 300 306 311 312 311 317 323 320 311 287 230 208 203 202 202 203 201 205 206 202 198 191 185 180 176 172 171 172 173 174 173 170 168 165 169 171 162 167 167 169 176 177 175 173 176 173 173 175 177 176 163 159 158 169 173 175 175 177 179 177 174 171 170 167 168 165 162 163 155 149 146 148 156 165 175 187 194 203
299 300 301 302 300 298 294 294 300 307 309 312 322 324 321 315 296 232 209 206 204 210 210 203 204 201 199 195 193 185 177 174 172 173 177 176 174 173 169 165 165 169 170 175 175 179 179 176 174 177 178 176 171 176 175 175 174 163 159 168 170 175 176 179 184 181 179 177 179 177 175 167 164 167 165 160 156 149 159 165 173 180 187 184 203
296 298 298 300 300 294 289 289 296 300 303 310 321 321 321 317 302 250 218 211 205 209 207 205 208 205 197 192 188 182 177 174 175 180 180 178 176 174 174 170 170 169 174 178 174 176 178 178 177 180 181 174 175 177 175 175 172 171 169 171 174 175 180 182 183 186 182 183 186 183 175 166 165 169 169 167 163 157 167 173 175 176 182 188 200
297 299 302 303 302 299 293 290 288 296 301 311 316 318 320 318 312 269 231 222 217 216 209 206 208 202 198 191 182 180 181 177 179 181 178 175 176 176 172 171 175 175 176 170 171 172 172 177 182 183 183 177 171 176 176 175 175 174 166 172 169 175 176 185 181 184 187 184 184 184 176 167 166 166 171 173 168 165 173 178 177 175 183 190 196
295 296 298 300 301 300 292 286 288 289 290 304 312 314 315 314 312 295 244 231 226 222 217 213 206 195 187 182 189 186 182 181 180 174 175 176 169 161 168 174 172 170 168 170 171 172 171 177 178 182 185 184 174 175 179 177 177 176 172 166 173 171 184 185 185 179 178 190 188 184 178 167 167 169 176 178 177 173 177 175 172 183 185 197 188
293 297 302 299 299 293 285 281 284 280 271 289 303 309 309 310 307 303 274 249 241 235 230 222 207 195 185 183 184 192 188 185 178 170 168 163 168 173 168 169 169 167 165 167 170 170 171 172 175 180 182 185 180 173 181 179 179 178 175 164 179 186 184 180 179 181 187 183 184 187 184 177 173 175 178 183 178 176 170 172 181 191 194 179 157
283 289 294 294 293 290 284 284 285 282 278 292 300 304 304 303 304 297 286 268 254 243 237 236 220 204 189 184 186 188 191 182 174 164 162 170 174 168 170 170 166 166 168 170 169 169 171 170 172 177 182 185 185 182 174 182 180 180 175 177 180 189 182 175 176 186 185 189 185 178 176 184 178 175 181 188 183 178 171 171 188 175 165 166 165
290 290 285 287 290 288 284 282 286 283 285 291 299 304 302 299 294 288 285 273 260 246 221 208 206 204 194 189 186 183 181 177 175 174 169 166 163 165 169 169 167 166 166 168 173 170 167 167 166 175 176 181 181 183 182 180 184 183 179 174 169 171 157 173 183 184 187 183 176 180 184 184 186 183 185 188 183 177 174 182 176 172 178 168 161
275 273 281 285 285 282 278 279 282 276 279 286 295 299 296 293 287 287 282 267 255 241 217 199 197 197 193 189 185 181 178 181 178 172 169 163 166 167 166 172 171 167 167 169 173 173 170 167 169 172 177 178 179 179 188 186 184 186 170 177 171 166 170 184 185 189 182 178 175 180 180 183 185 183 183 185 183 181 181 175 174 179 181 179 167
282 282 282 281 278 276 275 278 274 268 272 280 284 285 287 284 283 284 277 268 250 236 215 204 195 189 186 187 180 179 181 184 183 172 167 170 166 164 167 174 171 172 172 172 175 175 178 176 173 176 176 174 176 180 181 189 188 188 180 172 169 165 174 166 180 189 175 177 174 162 172 182 182 180 181 182 184 186 171 177 180 183 183 181 174
281 281 277 276 274 274 276 275 270 267 277 277 277 270 274 277 281 278 272 264 247 230 217 206 195 188 184 176 178 180 179 180 187 192 176 169 168 171 171 170 173 177 176 177 174 179 180 177 178 176 174 173 171 173 180 182 186 189 185 185 183 181 180 185 184 174 174 160 152 164 179 181 180 178 176 180 183 187 179 179 180 182 180 180 174
281 280 281 276 272 274 273 270 275 279 280 280 279 274 264 272 276 276 273 258 237 221 216 206 193 185 178 176 177 176 178 178 181 193 199 172 168 170 171 172 177 176 179 180 177 177 180 180 181 175 170 166 171 176 178 180 183 182 182 184 186 188 182 178 173 155 157 158 166 172 180 178 178 180 175 166 157 174 176 181 183 186 183 185 184
278 273 273 273 271 270 268 273 277 282 285 284 283 280 277 273 271 270 268 245 225 214 209 201 189 179 178 178 178 177 175 177 182 180 192 192 175 174 176 180 179 177 175 182 179 180 183 182 177 169 164 170 176 181 184 183 181 178 181 181 183 176 175 178 168 160 160 157 160 169 167 161 155 151 140 153 172 181 180 176 182 186 189 188 191
276 278 274 270 269 267 270 273 275 280 284 285 286 285 282 277 273 270 256 231 221 209 204 193 186 180 179 178 178 177 180 180 180 184 190 193 182 180 188 185 181 173 178 179 180 183 185 182 176 174 173 178 183 188 196 171 170 176 174 173 175 178 175 176 167 148 138 142 154 162 163 165 170 168 169 176 181 181 189 188 185 190 195 193 190
285 277 270 269 272 274 273 275 278 283 287 288 288 285 283 278 270 262 241 224 215 203 197 192 183 181 175 174 179 180 181 177 178 182 186 202 242 205 181 179 183 190 187 182 176 183 186 179 180 187 180 177 188 195 157 155 166 155 152 156 160 164 160 154 153 157 153 160 171 172 176 177 177 179 183 186 187 189 187 190 200 199 193 195 200
280 281 283 279 274 271 276 280 283 289 289 288 287 285 288 285 265 245 225 218 204 196 191 186 180 181 176 173 174 176 180 179 180 180 179 184 176 213 235 223 207 190 191 196 191 186 179 178 179 177 192 194 179 142 149 159 153 160 160 151 145 152 152 153 153 145 162 175 179 180 183 186 187 187 192 193 190 188 193 191 198 201 203 200 205